Location: ???????
(38.3081°N, 23.8480°E)
Time: 02:31:28
(UTC+00:00)

Daily predictions for brighter satellites

Satellite Brightness Start Highest point End
(mag) Time Altitude Azimuth Time Altitude Azimuth Time Altitude Azimuth
ADEOS II 2.8 00:01:38 10° NNE 00:06:40 44° E 00:07:44 39° SE
IDEFIX/ARIANE 42P 3.6 00:02:47 10° NNE 00:07:40 37° E 00:09:04 32° SE
Cosmos 2084 Rocket 4.3 00:12:47 38° NNW 00:12:47 38° NNW 00:15:44 10° NNE
Thor Agena Rocket 4.3 00:10:17 10° N 00:15:10 39° WNW 00:15:34 39° W
SL-16 R/B 2.0 00:16:08 66° SSW 00:16:59 86° WNW 00:22:41 10° NNE
NPP 3.5 00:12:48 10° NNE 00:18:13 89° WNW 00:19:05 65° SSW
Cosmos 2369 Rocket 4.4 00:13:53 10° N 00:18:15 23° NE 00:22:36 10° ESE
COSMOS 2455 3.0 00:21:40 47° SSE 00:23:10 63° ESE 00:29:07 10° NE
CZ-4 R/B 3.9 00:20:49 10° N 00:25:22 57° WNW 00:25:30 57° W
ATLAS 5 CENTAUR R/B 4.1 00:20:51 10° NW 00:24:40 21° WNW 00:24:40 21° WNW
Cosmos 1455 Rocket 3.9 00:22:42 10° NNW 00:26:09 39° WNW 00:26:09 39° WNW
CZ-4C R/B 3.9 00:21:29 10° NW 00:27:53 30° WSW 00:27:53 30° WSW
Meteor 1-28 Rocket 4.1 00:28:44 39° ESE 00:29:25 44° ENE 00:33:00 10° N
Cosmos 1536 Rocket 3.6 00:30:54 65° SE 00:31:23 73° E 00:35:47 10° NNE
EO 1 Del DPAF 3.7 00:28:01 10° NNE 00:31:12 50° E 00:31:12 50° E
Nadezhda 1 Rocket 4.1 00:30:28 37° S 00:33:07 74° E 00:39:25 10° N
Meteor 1-24 Rocket 4.0 00:34:53 45° WSW 00:35:48 50° WNW 00:41:10 10° N
UNK 3.6 00:40:50 62° SSW 00:41:32 76° WSW 00:46:09 10° NNW
MSX 4.1 00:36:54 10° NNE 00:42:38 62° ESE 00:45:21 31° S
MOS 1 Rocket 2.9 00:44:05 64° S 00:44:41 80° WSW 00:48:59 10° NNW
YAOGAN 11 4.0 00:46:10 61° SSW 00:46:47 71° WSW 00:51:16 10° NNW
Cosmos 1455 2.4 00:49:25 10° NNW 00:52:37 50° WNW 00:52:37 50° WNW
Cosmos 1269 Rocket 4.3 00:49:22 10° NNW 00:54:23 45° WSW 00:55:07 42° SW
Cosmos 1271 Rocket 2.7 00:52:45 10° N 00:56:36 76° E 00:57:43 44° SSE
Lacrosse 5 3.1 00:58:31 22° W 01:00:54 32° NW 01:05:29 10° NNE
CZ-2D R/B 3.2 00:56:24 10° N 01:01:01 30° WNW 01:02:28 26° W
ALOS 4.5 00:57:46 10° NE 01:01:12 20° E 01:04:36 10° SE
Cosmos 2154 Rocket 4.0 01:01:10 10° NNW 01:07:26 67° W 01:11:15 25° S
Helios 1B rocket 3.6 01:06:32 10° NNE 01:10:20 38° E 01:12:57 18° SSE
Cosmos 1943 3.4 01:08:53 27° S 01:12:04 69° ESE 01:17:45 10° NNE
SL-16 R/B 3.1 01:14:42 29° SW 01:16:45 36° W 01:22:26 10° NNW
Helios 1A 3.2 01:16:52 38° SSW 01:18:02 49° W 01:22:09 10° NNW
BREEZE-M DEB (TANK) 3.6 01:17:31 29° SSE 01:18:28 37° SE 01:24:01 10° ENE
Cosmos 1328 4.0 01:16:44 27° S 01:18:46 67° E 01:22:43 10° NNE
Lacrosse 5 rocket 3.0 01:21:54 17° WNW 01:23:46 23° NW 01:27:03 10° NNE
Cosmos 1140 Rocket 4.5 01:20:01 10° N 01:25:07 49° ENE 01:30:10 10° SE
NOSS 3-3 (A) 3.8 01:26:08 26° SW 01:29:21 78° NW 01:35:38 10° NNE
NOSS 3-3 (C) 3.8 01:26:14 26° SW 01:29:27 79° WNW 01:35:44 10° NNE
Resurs 1-4 Rocket 3.9 01:26:45 10° NNW 01:29:52 16° WNW 01:31:56 13° W
Lacrosse 4 Rocket 3.8 01:27:13 10° SSE 01:30:13 18° ESE 01:33:11 10° ENE
Cosmos 1892 Rocket 3.8 01:27:31 18° S 01:30:48 73° E 01:35:16 10° NNE
SeaSat 1 4.2 01:27:53 10° NE 01:32:03 27° ESE 01:36:11 10° SSE
Cosmos 1703 4.4 01:35:52 24° WSW 01:36:53 28° WNW 01:40:18 10° NNW
Cosmos 1943 Rocket 3.0 01:32:15 10° NW 01:37:04 29° WSW 01:39:28 21° SW
Cosmos 2297 4.2 01:31:52 10° NW 01:37:09 39° WSW 01:41:33 14° SSW
Cosmos 2263 4.5 01:31:47 10° NNW 01:37:29 72° ENE 01:43:11 10° SSE
FENGYUN 3A 4.0 01:32:57 10° NNE 01:38:18 63° E 01:43:37 10° S
Cosmos 1726 Rocket 3.6 01:33:56 10° N 01:38:22 82° E 01:42:43 10° S
MOS 1-B Rocket 3.8 01:39:35 10° SSE 01:45:14 88° E 01:50:57 10° NNW
SL-24 DEB 4.3 01:41:14 10° S 01:45:58 83° E 01:50:42 10° N
ADEOS II 3.6 01:42:05 10° NNW 01:46:00 22° WNW 01:48:40 15° WSW
Cosmos 1624 Rocket 4.3 01:41:18 13° S 01:46:03 70° ESE 01:51:20 10° NNE
IDEFIX/ARIANE 42P 3.9 01:42:45 10° NNW 01:47:01 26° WNW 01:49:52 16° WSW
Cosmos 1825 4.2 01:45:08 10° SSE 01:48:16 26° E 01:51:24 10° NNE
ARIANE 5 R/B 3.2 01:44:48 10° NNE 01:49:43 52° E 01:54:35 10° S
DNEPR-1 R/B 3.8 01:48:16 21° SW 01:50:52 56° NW 01:55:18 10° NNE
GPS 2-04 Rocket1 3.2 01:50:27 23° SW 01:51:59 35° SSE 01:55:15 10° E
Cosmos 2218 Rocket 4.1 01:46:18 10° N 01:52:34 88° E 01:58:53 10° S
CBERS-1 4.2 01:47:33 10° N 01:52:35 59° WNW 01:56:47 15° SSW
Cosmos 2056 Rocket 3.5 01:52:53 12° SSW 01:57:38 89° ESE 02:02:54 10° NNE
FALCON 9 R/B 4.5 01:41:50 10° WNW 01:58:59 30° SW 02:05:15 10° S
CZ-3 R/B 4.2 01:12:32 10° WSW 02:01:53 63° S 02:13:20 10° ESE
SL-16 R/B 4.3 01:59:22 10° WNW 02:01:57 13° NW 02:04:33 10° NNW
Cosmos 2369 Rocket 2.4 01:57:09 10° NNW 02:02:31 49° WSW 02:07:52 10° S
Cosmos 2181 Rocket 4.1 01:57:52 10° SSW 02:04:01 60° W 02:10:08 10° N
Cosmos 1892 2.6 02:00:34 10° S 02:04:21 89° W 02:08:09 10° N
Cosmos 2228 4.3 02:01:41 10° NW 02:05:05 23° W 02:07:33 14° SW
OAO 2 Rocket 3.6 02:02:22 15° WSW 02:06:13 49° SSE 02:10:57 10° E
Cosmos 2251 Rocket 4.1 02:03:02 10° NW 02:07:52 37° W 02:12:42 10° SSW
Cosmos 1959 Rocket 4.5 02:02:29 10° N 02:08:42 72° W 02:14:49 10° S
COSMOS 2455 4.4 02:04:53 10° W 02:09:32 23° NW 02:14:12 10° N
Cosmos 2098 4.2 02:06:49 10° N 02:09:50 78° E 02:12:52 10° S
Cosmos 1656 Rocket 3.7 02:06:41 10° NNW 02:11:54 51° WSW 02:17:08 10° S
IRS-P3 4.1 02:07:43 10° NNE 02:13:05 84° WNW 02:18:24 10° SSW
Cosmos 2058 Rocket 3.0 02:08:50 10° NNW 02:13:12 71° W 02:17:31 10° S
Cosmos 1190 Rocket 4.1 02:10:15 10° NNW 02:15:34 90° ENE 02:20:53 10° SSE
Cosmos 1626 Rocket 3.8 02:11:39 10° S 02:16:02 74° E 02:20:25 10° N
In-Cosmos 22 Rocket 4.4 02:10:25 10° S 02:16:11 86° E 02:22:03 10° N
Cosmos 1408 2.9 02:14:46 10° SSW 02:18:16 46° W 02:21:48 10° N
[s.n.52708] 3.4 02:16:55 13° WSW 02:19:16 42° NW 02:21:58 10° NE
[s.n.52707] 3.4 02:17:02 13° WSW 02:19:22 42° NW 02:22:05 10° NE
[s.n.52703] 3.4 02:17:08 13° WSW 02:19:29 41° NW 02:22:12 10° NE
[s.n.52705] 3.4 02:17:14 13° WSW 02:19:35 41° NW 02:22:18 10° NE
[s.n.52706] 3.4 02:17:21 13° WSW 02:19:42 41° NW 02:22:24 10° NE
[s.n.52701] 3.4 02:17:27 12° WSW 02:19:48 41° NW 02:22:31 10° NE
[s.n.52704] 3.4 02:17:33 12° WSW 02:19:55 41° NW 02:22:38 10° NE
[s.n.52699] 3.4 02:17:40 12° WSW 02:20:02 41° NW 02:22:45 10° NE
[s.n.52702] 3.4 02:17:46 12° WSW 02:20:08 41° NW 02:22:51 10° NE
[s.n.52697] 3.4 02:17:53 12° WSW 02:20:15 41° NW 02:22:57 10° NE
[s.n.52700] 3.4 02:17:59 12° WSW 02:20:21 41° NW 02:23:03 10° NE
[s.n.52695] 3.4 02:18:05 12° WSW 02:20:28 40° NW 02:23:11 10° NE
[s.n.52698] 3.4 02:18:12 12° WSW 02:20:34 40° NW 02:23:18 10° NE
[s.n.52693] 3.4 02:18:18 12° WSW 02:20:42 40° NW 02:23:25 10° NE
[s.n.52696] 3.4 02:18:24 12° WSW 02:20:49 40° NW 02:23:31 10° NE
[s.n.52691] 3.5 02:18:31 12° WSW 02:20:55 40° NW 02:23:38 10° NE
[s.n.52689] 3.5 02:18:38 12° WSW 02:21:02 40° NW 02:23:44 10° NE
[s.n.52694] 3.5 02:18:44 12° WSW 02:21:09 40° NW 02:23:50 10° NE
[s.n.52692] 3.5 02:18:50 12° WSW 02:21:15 40° NW 02:23:57 10° NE
[s.n.52687] 3.5 02:18:57 12° WSW 02:21:21 40° NW 02:24:04 10° NE
[s.n.52685] 3.5 02:19:03 12° WSW 02:21:28 39° NW 02:24:10 10° NE
[s.n.52690] 3.5 02:19:09 12° WSW 02:21:35 39° NW 02:24:18 10° NE
[s.n.52688] 3.5 02:19:16 12° WSW 02:21:42 39° NW 02:24:24 10° NE
[s.n.52683] 3.5 02:19:22 12° WSW 02:21:49 39° NW 02:24:31 10° NE
[s.n.52686] 3.5 02:19:29 12° WSW 02:21:56 39° NW 02:24:37 10° NE
[s.n.52681] 3.5 02:19:36 12° WSW 02:22:03 39° NW 02:24:45 10° NE
[s.n.52679] 3.5 02:19:42 12° WSW 02:22:09 39° NW 02:24:51 10° NE
[s.n.52684] 3.5 02:19:48 12° WSW 02:22:16 39° NW 02:24:58 10° NE
[s.n.52682] 3.5 02:19:55 11° WSW 02:22:23 39° NW 02:25:04 10° NE
[s.n.52677] 3.5 02:20:01 11° WSW 02:22:29 38° NW 02:25:12 10° NE
[s.n.52680] 3.5 02:20:08 11° WSW 02:22:37 38° NW 02:25:19 10° NE
[s.n.52675] 3.5 02:20:14 11° WSW 02:22:43 38° NW 02:25:25 10° NE
[s.n.52678] 3.5 02:20:21 11° WSW 02:22:50 38° NW 02:25:32 10° NE
[s.n.52673] 3.5 02:20:29 11° WSW 02:22:58 38° NW 02:25:40 10° NE
[s.n.52676] 3.5 02:20:35 11° WSW 02:23:04 38° NW 02:25:46 10° NE
[s.n.52671] 3.5 02:20:42 11° WSW 02:23:11 38° NW 02:25:53 10° NE
[s.n.52669] 3.6 02:20:48 11° WSW 02:23:18 38° NW 02:25:59 10° NE
[s.n.52674] 3.6 02:20:55 11° WSW 02:23:25 38° NW 02:26:07 10° NE
[s.n.52672] 3.6 02:21:01 11° WSW 02:23:31 38° NW 02:26:13 10° NNE
[s.n.52667] 3.6 02:21:08 11° WSW 02:23:40 37° NW 02:26:20 10° NNE
[s.n.52665] 3.6 02:21:15 11° WSW 02:23:47 37° NW 02:26:27 10° NNE
[s.n.52670] 3.6 02:21:21 11° WSW 02:23:53 37° NW 02:26:34 10° NNE
[s.n.52668] 3.6 02:21:28 11° WSW 02:24:01 37° NW 02:26:41 10° NNE
[s.n.52666] 3.6 02:21:35 11° WSW 02:24:07 37° NW 02:26:48 10° NNE
[s.n.52663] 3.6 02:21:41 11° WSW 02:24:14 37° NW 02:26:55 10° NNE
[s.n.52662] 3.6 02:21:48 11° WSW 02:24:21 37° NW 02:27:02 10° NNE
[s.n.52664] 3.6 02:21:55 11° WSW 02:24:28 37° NW 02:27:09 10° NNE
[s.n.52661] 3.6 02:22:02 11° WSW 02:24:35 37° NW 02:27:16 10° NNE
[s.n.52660] 3.6 02:22:08 11° WSW 02:24:43 37° NW 02:27:23 10° NNE
[s.n.52656] 3.6 02:22:15 11° WSW 02:24:49 36° NW 02:27:29 10° NNE
[s.n.52658] 3.6 02:22:22 11° WSW 02:24:57 36° NW 02:27:37 10° NNE
[s.n.52659] 3.6 02:22:28 10° WSW 02:25:03 36° NW 02:27:44 10° NNE
[s.n.52657] 3.6 02:22:36 10° WSW 02:25:11 36° NW 02:27:51 10° NNE
PAYLOAD A 4.2 02:24:58 10° N 02:29:31 50° WNW 02:34:12 10° SSW
ATLAS 2A CENTAUR R/B 3.9 02:17:45 10° WSW 02:31:11 38° S 02:36:47 10° ESE
Cosmos 676 Rocket 4.3 02:28:41 10° NNW 02:34:02 78° ENE 02:39:22 10° SSE
ALOS 3.0 02:34:22 10° N 02:38:39 37° WNW 02:42:55 10° SW
CZ-2C R/B 3.1 02:36:05 10° N 02:40:49 39° WNW 02:45:25 10° SW
